Temp_Advection
nan nan nan nan nan nan nan nan nan nan nan nan nan nan nan nan nan nan nan nan nan nan nan nan nan nan nan nan nan nan nan nan nan nan nan nan nan nan nan nan nan nan nan
nan 0 0 0 0 0 0 0 0 0 0 0 0 0 0 0 0 0 0 0 0 0 0 -0 -0 -0 0 0 -0 -0 -0 -0 -0 -0 -0 -0 -0 0 0 0 0 0 nan
nan 0 0 0 0 0 0 0 0 0 -0 -0 0 0 0 0 0 0 0 0 0 0 0 -0 -0 -0 -0 -0 -0 -0 -0 -0 -0 -0 -0 -0 -0 -0 0 0 -0 0 nan
nan 0 0 0 0 0 0 0 0 0 -0 -0 0 0 0 0 0 0 0 0 0 0 0 -0 -0 -0 -0 -0 -0 -0 -0 -0 -0 -0 -0 -0 -0 -0 -0 0 0 -0 nan
nan 0 0 0 0 0 0 -0 0 0 -0 -0 -0 0 0 0 0 0 0 0 0 -0 -0 -0 -0 -0 -0 -0 -0 -0 -0 -0 -0 -0 -0 -0 -0 -0 -0 -0 -0 -0 nan
nan 0 0 0 0 0 0 0 0 0 0 -0 -0 0 0 0 0 0 0 0 0 -0 -0 -0 -0 -0 -0 -0 -0 -0 -0 -0 -0 -0 -0 -0 -0 -0 -0 -0 0 0 nan
nan 0 0 0 0 0 0 0 -0 -0 -0 -0 -0 -0 -0 0 0 0 0 0 0 0 -0 -0 -0 -0 -0 0 0 0 0 0 0 0 0 -0 -0 -0 -0 -0 0 0 nan
nan 0 0 0 0 0 0 -0 -0 -0 -0 -0 -0 -0 -0 -0 -0 -0 0 0 0 0 0 -0 -0 -0 -0 -0 0 0 -0 0 0 0 0 0 0 0 1 1 0 -0 nan
nan 0 0 0 0 0 0 -0 -0 -0 -0 -0 -0 -0 -0 -0 -0 -0 -0 0 -0 -0 0 0 -0 -0 -0 -0 -0 -0 -0 -0 -0 -0 -0 -0 0 0 0 0 0 -0 nan
nan 0 0 0 0 0 -0 -0 -0 -0 -0 -0 -0 -0 -0 -0 -0 -0 -0 -0 0 0 0 0 0 0 -0 -0 0 0 -0 -0 -0 -0 0 1 0 -0 -0 -0 -0 0 nan
nan 0 0 0 0 0 -0 -0 -0 -0 -0 -0 -0 -0 -0 -0 -0 -0 -1 -1 -0 0 0 0 0 0 0 -0 -0 0 0 -0 -0 -0 -0 0 1 -0 -1 -0 -0 0 nan
nan 0 0 0 0 0 -0 -0 -0 -0 -0 -0 -0 -0 -0 -0 -0 0 -1 -2 -2 -1 -0 -0 0 -0 -0 -0 -0 -0 -0 -0 -0 0 0 1 1 -0 -0 -1 -1 -0 nan
nan 0 0 0 0 0 -0 -0 -0 -0 -0 -0 -0 -0 -0 -0 -0 0 -0 -1 -2 -3 -2 -1 0 -0 -0 -0 -0 -1 -0 -0 -0 -0 0 1 1 0 0 -0 -0 -1 nan
nan 0 0 0 0 0 -0 0 0 0 -0 -0 -0 -0 -0 -0 -0 0 0 0 -1 -3 -4 -3 -1 1 0 0 -0 -1 -1 -1 -1 -1 -0 -0 -0 -0 -0 -0 -0 0 nan
nan 0 0 0 0 0 0 0 0 -0 -0 -0 -0 -0 -0 -0 -0 0 0 0 1 0 -2 -4 -4 -2 -0 -0 0 0 -0 -0 -0 -0 -1 -1 -1 -1 -0 -0 -0 -0 nan
nan 0 0 0 0 0 0 0 -0 -0 -0 -0 -0 -0 -0 -0 0 0 0 0 1 2 0 -2 -2 -3 -2 -2 -0 -0 -0 -0 -0 0 0 -0 -1 -1 -1 -0 -0 0 nan
nan 0 0 0 0 0 0 -0 -0 -0 -0 -0 -0 -0 -0 -0 -0 -0 -0 0 0 1 1 -1 -1 -2 -2 -3 -2 -2 -1 -1 -1 -1 -0 -0 -0 -0 -0 -0 1 0 nan
nan 0 0 0 0 0 -0 -0 -0 -0 -0 -0 -0 -0 -0 -0 0 0 -0 0 0 1 1 -0 -0 -1 -2 -3 -3 -3 -3 -2 -2 -2 -2 -1 -0 -1 -0 0 0 -0 nan
nan 0 0 0 0 0 -0 -0 -0 -0 -0 -0 -0 -0 -0 -0 -0 0 0 -0 -0 -0 0 0 0 0 -0 -1 -1 -1 -1 -2 -2 -3 -3 -2 -1 0 0 -0 -1 -1 nan
nan 0 0 0 0 -0 -0 -0 -0 -0 -0 -0 -0 -0 -0 -0 -0 -1 -1 -0 -0 -1 -1 -0 -0 -0 -0 -0 -0 0 -0 0 -0 -1 -2 -1 -1 -1 -0 0 0 0 nan
nan 0 0 0 -0 -0 -0 -0 -0 -0 -0 -0 -0 -0 -0 -0 0 -0 -0 -0 -1 -1 -1 -1 -0 -0 0 -0 -0 -0 -0 -0 -1 0 0 -0 -0 -1 -1 -0 -0 0 nan
nan 0 0 -0 -0 -0 -0 -0 -0 -0 -0 -0 -0 -0 -0 -0 -0 0 0 0 0 -0 0 0 -0 -0 -0 0 0 -0 -0 -0 -1 -1 -0 -1 -1 -1 -1 -1 -1 1 nan
nan 0 -0 -0 -0 -0 -0 -0 -0 -0 -0 -0 -0 -1 -1 -0 -0 -0 -0 -0 0 0 0 0 0 -0 -0 -0 -0 -0 -0 0 -0 -0 -1 -1 -0 -1 -1 -1 -1 -0 nan
nan 0 -0 -0 -0 -0 -0 -0 -0 -0 -0 -0 -0 -0 -0 -1 -1 -0 -0 -1 -1 -1 0 0 0 -0 -0 -0 -0 -0 -0 -0 0 -0 -0 -1 -1 -1 -0 -1 -1 -1 nan
nan -0 -0 -0 -0 -0 -0 -0 -0 -0 -0 -0 0 0 0 -0 -0 -0 -0 -0 0 -0 -1 -0 -0 -0 -0 0 0 -0 -0 -0 0 0 -0 -0 -0 -1 -1 -0 -0 -1 nan
nan nan nan nan nan nan nan nan nan nan nan nan nan nan nan nan nan nan nan nan nan nan nan nan nan nan nan nan nan nan nan nan nan nan nan nan nan nan nan nan nan nan nan
Wind_Speed
6 5 4 3 3 3 2 2 1 1 1 1 2 1 1 1 1 1 4 8 9 9 9 10 8 7 5 4 8 7 7 8 9 10 10 10 11 12 12 11 13 9 3
6 5 4 3 3 2 2 1 1 1 0 1 2 2 2 1 1 2 3 4 5 6 6 6 6 6 6 7 9 10 9 9 10 10 10 11 11 11 12 11 10 11 7
6 5 4 3 3 2 2 2 1 1 1 1 1 1 0 1 2 2 3 3 3 4 5 5 6 7 8 8 9 11 11 10 10 10 11 10 10 10 10 10 12 12 13
6 5 4 4 3 3 2 2 2 1 1 1 2 2 2 2 2 2 3 3 4 5 6 7 8 9 10 11 11 11 12 13 13 12 12 13 12 11 11 12 12 13 13
6 5 5 4 4 3 2 2 1 2 1 2 3 3 3 3 3 3 3 4 5 6 6 7 7 8 9 10 11 11 12 14 14 14 14 14 15 14 13 13 14 14 14
6 6 5 4 3 2 2 1 1 2 2 3 4 4 4 4 4 4 4 4 5 4 6 7 8 8 10 11 10 11 12 13 13 15 16 15 15 16 16 15 14 14 15
7 6 5 4 3 2 1 0 1 2 3 5 4 4 3 2 2 3 4 4 6 8 8 9 10 12 14 14 14 15 16 17 17 16 16 17 17 17 16 16 16 15 14
8 7 5 4 3 2 1 1 1 2 4 5 5 4 2 2 4 4 5 5 5 7 8 11 14 16 17 19 20 21 21 22 22 22 22 21 21 20 19 18 17 16 16
9 7 5 4 3 1 0 1 2 2 4 5 6 5 2 2 9 2 5 4 5 11 13 14 19 20 20 21 21 21 22 22 23 23 24 24 23 22 21 20 19 19 19
8 7 4 4 2 1 0 1 2 3 4 4 5 5 4 5 3 4 4 11 10 14 17 15 16 17 18 19 19 20 20 20 21 22 23 23 22 21 21 22 22 22 22
8 6 4 3 2 1 0 1 2 3 3 5 5 6 6 6 6 8 11 16 15 14 14 17 15 16 15 17 18 18 18 20 22 24 25 25 24 22 23 24 24 25 24
7 6 5 4 2 2 1 1 2 3 4 5 6 6 6 7 9 10 17 23 25 25 23 20 20 18 23 18 19 20 23 26 28 29 29 28 26 24 25 24 25 26 27
7 6 5 3 2 2 1 1 3 4 4 6 6 7 9 10 12 13 16 20 25 31 30 28 27 28 23 23 25 28 29 29 29 29 29 29 29 29 29 29 28 27 28
7 6 5 3 2 1 1 2 4 4 5 7 8 9 11 12 14 16 18 20 23 25 30 30 29 28 31 32 33 32 31 29 29 29 30 30 31 32 33 33 33 32 32
8 7 5 4 2 2 3 3 4 5 6 8 9 11 13 15 17 18 19 20 21 14 20 26 30 31 32 34 34 34 33 32 30 28 27 28 30 32 32 33 33 34 35
8 7 5 4 4 4 4 5 5 5 7 10 12 14 16 18 19 20 20 21 22 23 19 28 33 33 31 32 33 35 37 37 36 34 33 31 29 28 29 30 31 32 33
8 7 6 5 6 5 4 4 5 7 10 13 15 16 18 19 20 21 22 23 24 26 32 36 35 37 38 37 36 35 34 36 37 36 36 36 35 34 32 31 31 29 30
9 8 8 7 6 5 3 5 7 10 13 15 16 18 19 20 21 22 24 25 27 28 33 39 38 40 39 38 36 35 33 30 32 34 34 34 32 32 31 30 30 28 29
10 9 8 7 4 3 4 6 9 12 15 16 18 19 21 22 23 25 27 29 30 31 32 36 41 36 35 27 28 31 31 33 30 32 34 32 29 30 28 27 28 27 28
10 10 8 5 2 3 6 9 12 14 15 17 18 20 22 24 26 28 30 31 31 32 32 33 33 32 30 32 33 33 36 32 31 31 33 31 27 27 29 30 29 27 31
11 9 6 2 2 5 8 11 14 15 17 18 19 22 24 25 26 27 28 28 27 26 25 26 31 34 33 32 32 35 37 37 36 35 32 27 23 31 34 29 29 35 33
10 6 3 2 5 8 11 13 15 16 19 21 23 25 26 27 28 27 26 23 20 21 26 29 32 31 32 31 32 34 35 37 36 26 22 40 37 37 34 33 41 30 26
7 3 1 4 7 10 12 14 16 19 21 23 25 27 28 28 27 26 23 24 24 23 26 30 30 29 33 34 35 36 36 32 38 37 30 37 31 30 29 29 26 30 27
4 1 3 6 9 11 14 16 19 21 21 24 26 27 27 26 24 23 23 24 26 29 29 26 28 33 32 33 32 35 38 39 35 29 24 33 29 33 29 29 32 24 23
2 2 5 8 11 13 16 19 20 22 25 26 27 26 23 23 21 20 22 27 29 30 27 24 26 29 31 33 29 28 29 30 33 29 28 30 26 33 37 34 23 23 32
1 5 7 10 13 15 18 20 23 26 27 27 26 23 22 22 20 19 23 28 34 29 30 31 34 34 32 29 26 21 25 28 30 35 22 27 29 24 31 25 20 32 33
Wind_Direction
196 193 191 188 180 182 190 189 213 210 227 284 277 294 303 313 324 154 178 199 215 233 259 278 287 286 285 343 326 318 313 310 304 299 297 287 285 284 287 292 282 303 284
195 193 186 185 191 196 217 195 195 187 189 298 293 291 290 308 109 144 149 172 204 236 259 272 279 286 293 295 305 310 309 308 308 305 302 298 298 295 292 287 273 269 250
193 193 190 186 193 189 197 199 205 200 289 333 331 318 269 172 163 154 163 196 218 242 263 279 289 295 298 300 300 304 307 308 307 305 304 300 299 295 291 282 275 279 278
188 188 183 180 180 179 181 187 214 224 255 309 315 317 297 268 228 222 229 245 261 276 285 291 297 302 304 306 306 304 304 306 306 306 305 304 301 295 290 286 284 282 282
182 182 181 177 169 179 183 183 218 268 283 307 312 309 301 286 273 268 271 282 290 296 299 300 306 310 311 312 309 306 305 304 305 303 303 302 300 297 293 289 286 285 284
179 178 177 173 166 165 168 185 244 276 313 323 328 320 307 290 285 280 283 289 298 299 314 309 308 310 312 310 307 307 307 306 304 302 301 299 295 293 292 289 287 291 291
175 173 176 174 168 162 167 154 282 318 341 344 354 336 324 309 313 279 287 290 294 295 302 304 308 305 306 304 302 300 300 299 296 294 295 295 294 291 289 288 287 286 283
176 174 176 179 176 177 145 335 6 353 4 2 0 16 64 44 58 322 309 305 309 302 304 309 310 311 309 305 302 302 299 298 296 294 292 292 292 290 288 285 285 283 280
177 177 178 188 192 175 164 41 5 6 14 8 17 38 31 12 348 41 322 325 332 317 313 315 309 307 305 303 302 300 297 295 294 292 290 289 288 287 285 283 281 278 276
181 182 180 200 195 176 49 351 355 3 12 16 10 22 18 353 349 321 323 309 316 315 312 316 314 312 310 309 308 305 300 296 294 291 289 288 288 287 286 284 282 278 275
182 184 176 198 189 143 323 334 23 13 12 16 13 11 3 356 348 326 319 324 322 327 331 328 330 324 318 314 304 300 302 302 299 297 294 291 288 287 282 280 279 276 272
180 174 170 178 155 118 80 52 42 24 17 18 16 10 3 357 344 335 323 326 327 327 330 330 331 328 323 319 309 300 299 296 294 292 290 288 288 286 283 278 273 274 272
177 176 175 170 164 123 92 45 41 37 31 28 20 8 359 348 340 332 324 320 320 321 324 326 329 328 324 318 310 308 305 306 302 297 293 290 286 282 282 278 274 263 267
176 178 180 163 195 143 108 72 67 52 35 24 13 1 351 343 337 330 324 320 316 315 317 320 323 323 322 318 315 313 310 306 302 299 296 293 289 286 283 280 276 271 261
174 176 178 160 172 134 114 88 72 51 27 13 1 352 343 335 331 326 322 319 314 306 305 312 316 318 316 314 314 312 309 308 305 301 295 291 289 289 287 283 278 273 268
174 177 169 164 148 138 117 90 57 31 10 359 348 340 333 329 326 322 321 319 315 309 294 304 309 313 311 308 307 307 307 307 306 304 300 296 290 286 285 285 283 278 272
174 173 167 150 147 128 102 67 29 6 354 345 336 331 327 325 323 322 320 317 315 312 306 309 311 314 314 312 310 307 304 302 302 301 299 297 294 292 288 282 280 282 279
174 166 150 149 138 115 76 28 359 348 341 333 329 327 326 324 321 319 317 315 314 312 309 308 311 314 314 315 315 316 314 311 310 307 302 301 298 297 294 289 284 282 281
163 154 146 147 136 90 23 355 343 337 332 329 328 326 325 323 321 319 317 316 313 310 307 307 309 313 317 319 319 322 318 316 314 311 312 312 308 307 301 295 291 284 278
156 148 146 150 107 17 351 340 334 331 330 329 328 327 325 324 322 320 317 316 315 312 312 312 313 317 318 317 316 314 313 314 314 311 315 311 311 308 303 301 297 294 297
150 149 149 123 11 344 335 331 331 330 330 329 329 327 326 324 321 319 319 320 319 321 321 318 316 318 318 319 317 316 318 319 315 318 313 310 302 312 312 302 307 306 302
151 147 136 9 337 331 334 332 331 332 333 332 330 326 324 322 322 323 323 324 327 323 321 318 315 312 314 313 317 314 312 311 306 318 316 306 311 307 304 296 305 305 302
148 147 340 331 334 336 334 335 335 335 334 331 327 326 326 326 326 324 324 327 327 324 317 314 312 313 314 317 318 317 314 311 312 313 314 307 307 302 307 309 310 309 307
154 159 336 337 338 338 338 337 335 331 328 329 329 329 328 330 330 328 330 325 325 320 318 316 307 307 308 310 308 304 303 303 302 305 310 303 312 310 313 309 317 318 320
152 342 344 343 339 341 338 331 329 329 332 331 329 329 329 331 335 333 329 323 317 316 321 321 318 312 309 306 307 307 306 306 305 307 311 307 311 312 315 316 318 318 324
15 354 344 343 343 337 332 330 333 333 330 329 327 329 333 331 329 334 322 316 318 325 325 317 316 316 314 310 307 305 306 305 303 307 310 307 309 315 316 315 311 316 321
Height
1537 1538 1539 1540 1541 1541 1542 1542 1543 1543 1544 1544 1545 1545 1545 1545 1545 1545 1545 1546 1547 1547 1548 1548 1547 1546 1546 1545 1543 1542 1541 1540 1538 1537 1537 1535 1534 1533 1532 1531 1530 1529 1529
1537 1537 1538 1539 1540 1541 1541 1542 1542 1542 1543 1544 1544 1544 1544 1544 1544 1544 1545 1545 1545 1546 1547 1546 1546 1545 1544 1543 1542 1541 1540 1539 1537 1536 1535 1533 1533 1531 1530 1529 1528 1527 1526
1536 1537 1538 1538 1539 1540 1541 1541 1541 1541 1542 1542 1543 1543 1543 1544 1544 1544 1544 1545 1545 1545 1545 1545 1544 1544 1543 1542 1541 1539 1538 1537 1536 1534 1533 1532 1530 1529 1528 1526 1525 1524 1523
1535 1536 1537 1537 1538 1539 1540 1540 1541 1541 1541 1542 1542 1542 1543 1543 1543 1544 1543 1544 1544 1544 1544 1543 1543 1542 1541 1540 1539 1538 1536 1535 1534 1532 1531 1530 1528 1527 1526 1525 1523 1522 1521
1534 1535 1536 1536 1537 1538 1539 1539 1540 1540 1540 1541 1541 1542 1542 1542 1542 1543 1543 1542 1543 1542 1542 1541 1541 1540 1539 1538 1537 1536 1534 1533 1531 1530 1529 1527 1526 1524 1523 1522 1521 1520 1519
1532 1534 1535 1535 1536 1537 1538 1539 1539 1539 1540 1540 1541 1540 1540 1541 1541 1541 1542 1541 1541 1541 1540 1539 1539 1538 1537 1536 1534 1533 1532 1530 1529 1527 1525 1524 1523 1521 1520 1519 1518 1517 1516
1531 1533 1534 1535 1535 1536 1537 1538 1539 1539 1539 1539 1540 1540 1539 1540 1540 1540 1540 1540 1539 1539 1538 1538 1537 1536 1535 1533 1532 1530 1529 1528 1526 1524 1522 1521 1519 1518 1516 1515 1514 1513 1513
1530 1532 1533 1534 1535 1536 1536 1537 1538 1538 1538 1538 1538 1537 1538 1541 1539 1539 1538 1538 1538 1537 1537 1536 1535 1533 1532 1531 1529 1528 1526 1524 1522 1521 1519 1518 1516 1514 1513 1511 1510 1510 1509
1530 1531 1532 1534 1535 1535 1535 1536 1537 1537 1536 1537 1537 1537 1537 1539 1539 1538 1538 1537 1537 1537 1536 1534 1532 1530 1528 1525 1524 1522 1520 1518 1517 1515 1514 1513 1511 1509 1508 1507 1506 1505 1504
1529 1531 1531 1534 1534 1534 1535 1535 1536 1536 1535 1536 1537 1537 1537 1538 1538 1538 1537 1536 1536 1535 1533 1531 1529 1527 1524 1522 1519 1517 1515 1513 1511 1510 1508 1506 1506 1505 1504 1504 1502 1501 1500
1529 1530 1530 1533 1533 1532 1534 1535 1534 1535 1535 1536 1536 1536 1536 1536 1536 1536 1534 1534 1533 1532 1531 1528 1526 1524 1521 1518 1515 1513 1510 1508 1506 1505 1503 1501 1500 1499 1499 1498 1497 1496 1494
1528 1529 1530 1532 1532 1532 1533 1534 1533 1534 1535 1535 1535 1536 1536 1536 1535 1535 1532 1530 1527 1526 1525 1524 1521 1519 1516 1514 1511 1508 1506 1503 1500 1498 1496 1494 1492 1491 1490 1489 1490 1489 1487
1526 1528 1530 1531 1532 1531 1532 1533 1533 1533 1534 1534 1535 1536 1535 1534 1533 1532 1531 1528 1525 1520 1518 1517 1514 1512 1511 1509 1506 1502 1499 1495 1493 1490 1488 1486 1483 1481 1480 1479 1478 1479 1479
1525 1527 1529 1529 1532 1531 1532 1532 1532 1533 1534 1534 1534 1535 1534 1533 1531 1529 1528 1526 1521 1517 1515 1513 1512 1507 1504 1501 1498 1494 1491 1489 1485 1483 1480 1477 1474 1472 1470 1468 1467 1467 1467
1524 1527 1528 1528 1530 1531 1531 1532 1532 1532 1534 1533 1533 1533 1532 1531 1528 1527 1525 1522 1519 1514 1510 1507 1506 1504 1499 1495 1491 1487 1483 1479 1477 1474 1472 1469 1466 1463 1461 1459 1457 1456 1455
1523 1526 1527 1528 1529 1531 1531 1531 1532 1532 1533 1532 1532 1531 1530 1528 1525 1523 1521 1519 1516 1512 1505 1502 1499 1497 1495 1491 1487 1481 1476 1471 1468 1465 1461 1459 1457 1455 1453 1450 1447 1446 1444
1523 1524 1525 1527 1530 1530 1531 1531 1532 1532 1531 1531 1530 1528 1527 1525 1522 1520 1518 1515 1512 1508 1500 1495 1491 1488 1484 1481 1478 1475 1471 1465 1460 1457 1453 1450 1448 1446 1443 1441 1439 1437 1435
1522 1524 1524 1528 1529 1530 1531 1531 1531 1530 1530 1528 1527 1525 1523 1521 1518 1516 1513 1510 1506 1504 1496 1488 1485 1480 1476 1472 1468 1464 1460 1457 1453 1449 1446 1443 1439 1436 1434 1432 1430 1428 1426
1521 1522 1524 1528 1530 1529 1530 1530 1529 1528 1527 1525 1523 1521 1518 1516 1514 1511 1508 1504 1501 1496 1492 1484 1476 1474 1469 1465 1460 1456 1452 1448 1445 1441 1438 1435 1432 1429 1426 1423 1421 1419 1417
1520 1522 1525 1528 1528 1528 1528 1528 1526 1525 1524 1522 1519 1517 1514 1511 1508 1505 1501 1498 1494 1489 1484 1479 1473 1468 1465 1461 1457 1451 1445 1443 1438 1435 1431 1427 1424 1422 1418 1415 1413 1410 1408
1520 1523 1526 1527 1526 1526 1526 1525 1523 1522 1520 1518 1515 1513 1510 1507 1504 1500 1495 1491 1487 1483 1479 1474 1469 1464 1459 1454 1451 1446 1439 1434 1430 1427 1422 1419 1417 1413 1409 1406 1403 1401 1398
1521 1523 1525 1524 1524 1524 1523 1521 1520 1518 1516 1514 1511 1509 1505 1502 1498 1494 1490 1486 1483 1478 1475 1471 1465 1460 1455 1451 1445 1441 1434 1429 1421 1422 1416 1412 1410 1404 1402 1398 1395 1391 1388
1521 1522 1522 1522 1522 1521 1519 1518 1517 1515 1513 1510 1506 1502 1499 1496 1491 1487 1484 1481 1478 1475 1472 1466 1460 1456 1449 1446 1441 1434 1430 1425 1421 1415 1411 1403 1402 1397 1395 1390 1387 1384 1381
1519 1520 1520 1520 1519 1518 1517 1515 1513 1511 1508 1505 1501 1497 1493 1489 1485 1482 1479 1475 1472 1468 1464 1460 1456 1450 1445 1441 1437 1431 1425 1419 1414 1411 1408 1398 1396 1389 1386 1382 1379 1376 1373
1518 1518 1518 1518 1516 1515 1514 1512 1509 1507 1503 1500 1496 1492 1488 1484 1480 1478 1474 1470 1466 1461 1457 1453 1449 1444 1439 1434 1429 1424 1419 1414 1407 1404 1401 1395 1390 1383 1378 1373 1371 1369 1367
1516 1516 1516 1515 1513 1512 1511 1508 1504 1501 1498 1494 1492 1488 1484 1480 1476 1473 1470 1464 1458 1454 1449 1445 1440 1435 1431 1426 1422 1419 1414 1409 1404 1397 1397 1392 1386 1383 1371 1369 1367 1364 1359